Torna al catalogo

STARLINK-35750

AttivoComunicazioniVLEO
NORAD 66209·PAYLOAD·🇺🇸 United States

Lanciato Oct 28, 2025 da Vandenberg Space Force Base

Loading…

Prossimi Passaggi (prossime 24 ore)

TLE

AggiornatoSource: CelesTrak SupGP

Epoca: Sep 14, 2026, 21:38 UTC

1 66209C 25244D   26257.90187500  .00012007  00000+0  35488-3 0  2579
2 66209  53.1586  67.6788 0001155  82.3474   9.5047 15.34372820    16

Traccia STARLINK-35750 in tempo reale con AllMySat

Download on the App Store